Location: Ammerl�gen
(47.2167°N, 9.6000°E)
Time: 03:54:18
(UTC+00:00)

Cosmos 1689 Rocket - Pass Details

Date: 21 April 2021
Orbit: 345 x 359 km, 97.5° (Epoch: 16 May)

Event Time Altitude Azimuth Distance (km) Brightness Sun altitude
Rises 18:46:58 0° 8° (N) 2,189 6.1 -5.2°
Reaches altitude 10° 18:48:56 10° 3° (N) 1,335 5.1 -5.5°
Maximum altitude 18:51:42 51° 286° (WNW) 455 3.0 -6.0°
Drops below altitude 10° 18:54:25 10° 209° (SSW) 1,313 4.8 -6.4°
Sets 18:56:20 0° 204° (SSW) 2,147 5.8 -6.7°
